THOR ABLESTAR DEB, 475

Orbit data source: Space-Track

THOR ABLESTAR DEB, 475 is space debris in LEO originally from a launch on Thu, 29 Jun 1961 UTC launched from the Air Force Eastern Test Range (AFETR). Debris objects in space refer to the collection of defunct objects orbiting the Earth. Examples of debris include non-operational satellites, rocket bodies, and fragments generated from explosions, collisions, or faulty payload assembly.

Loading next visibility...
THOR ABLESTAR DEB details
Identifier
475, 1961-015FM
Orbit
LEO
Last TLE update2 days ago
Origin
Flag of USUSAF SSD (US)
ManufacturerUnknown
MissionSpacecraft
Bus & MotorUnknown
MassUnknown
Launch date (UTC)
1961-06-29 (64 years ago)
Launch vehicleUnknown
Launch site
Air Force Eastern Test Range (AFETR)
Object type
Payload
Rocket body
Debris
Shape & HBRUnknown
Radar Cross SectionSmall (<0.1 m²)

Expand to show TLE details & history

TLE from 2 days ago
0 THOR ABLESTAR DEB
1 00475U 61015FM  25034.99310310  .00004589  00000-0  19751-2 0  9990
2 00475  66.2229 249.6394 0143037  49.2941 312.0470 14.20110996216941
Epoch: 2025-02-03T23:50Z
Definitive object data (Epoch: 2025-02-03T23:50:04.107Z)
Latitude-0.00007°
Longitude117.71748°
Altitude758.85 km
Speed7.511 km/s
True Right ascension16h 38m 33s
True Declination0° 00' 00"
Sunlit
Object was in daylight at TLE epoch
Visualization TLE readout
Latitude-33.48504°
Longitude96.26539°
Altitude826.257 km
Speed7.445 km/s
Apparent Right ascension12h 08m 12s
Apparent Declination-51° 13' 27"
Sunlit
Object is in daylight
Visualization observer readout
Local Sidereal Time19:59:08
Azimuth233.45° WSW
Elevation-46.367°
Doppler factor1
Orbital elements
Apogee altitude926.424 km
Perigee altitude720.407 km
Semi-major axis7,201.552 km
Eccentricity0.0143037
Inclination66.2229°
RAAN249.6394°
Arg. of periapsis49.2941°
True anomaly310.81517°
Mean anomaly312.047°
Eccentric anomaly311.43256°
Mean motion3.55144 °/min
BSTAR0.0019751
Orbital period101.37 mins
Loading maneuver chart data...

THOR ABLESTAR DEB Visibility forecast

Observer location: undefined°, undefined

Span
Click to sort rows by Start time (UTC) header in descending order
Start Az.
Max El. time (UTC)
Max El. Az.
Max El.
End time (UTC)
End Az.
8 mins2025-02-05 23:41:05.021Z353.258° N2025-02-05 23:45:05.021Z50.659° ENE27.392°2025-02-05 23:49:05.021Z107.342° ESE
8 mins2025-02-06 01:26:05.021Z304.852° NW2025-02-06 01:29:05.021Z255.648° W32.133°2025-02-06 01:34:05.021Z182.668° SSW
7 mins2025-02-06 14:30:05.021Z159.703° S2025-02-06 14:33:05.021Z113.688° SE24.763°2025-02-06 14:37:05.021Z55.252° ENE
7 mins2025-02-06 16:14:05.021Z249.974° W2025-02-06 16:17:05.021Z301.613° NW29.969°2025-02-06 16:21:05.021Z9.205° NNE
|